Terminal Aerodrome Forecast
Issued by NWS Milwaukee/Sullivan, WI

Home | Current Version | Previous Version | Text Only | Print | Product List | Glossary On
Versions: 1 2 3 4 5 6 7 8 9 10 11 12 13 14 15 16 17 18 19 20 21 22 23 24 25 26 27 28 29 30 31 32 33 34 35 36 37 38 39 40 41 42 43 44 45 46 47 48 49 50
000
FTUS43 KMKX 281725
TAFMSN
TAF
KMSN 281725Z 2818/2918 16011G18KT P6SM SCT018 OVC200
     FM290100 15010KT P6SM OVC020
     FM290500 16007KT P6SM OVC008
      TEMPO 2905/2908 4SM -FZDZPL
     FM290800 VRB03KT 3SM BR OVC008
     FM291200 32010KT P6SM OVC015
     FM291600 32015G24KT P6SM OVC015=

USA.gov is the U.S. government's official web portal to all federal, state and local government web resources and services.